| time (UTC) | temp C | wind direction | speed KPH | gust KPH | rain 1hr cm | rain 24hr cm | rain mn cm | humidity % | barometer mb |
| 20260506213009 | 15 | 68 | 6.4 | 16.1 | 0.00 | 2.72 | 2.72 | 80 | 1012.2 |
| 20260506211519 | 15 | 79 | 4.8 | 14.5 | 0.00 | 2.72 | 2.72 | 80 | 1012.4 |
| 20260506210018 | 15 | 63 | 6.4 | 12.9 | 0.00 | 2.72 | 2.72 | 80 | 1012.3 |
| 20260506204521 | 15 | 86 | 4.8 | 14.5 | 0.00 | 2.72 | 2.72 | 80 | 1012.2 |
| 20260506203034 | 15 | 67 | 3.2 | 14.5 | 0.00 | 2.72 | 2.72 | 80 | 1012.1 |
| 20260506201508 | 15 | 88 | 4.8 | 14.5 | 0.00 | 2.72 | 2.72 | 81 | 1012.0 |
| 20260506200012 | 15 | 84 | 4.8 | 9.7 | 0.00 | 2.72 | 2.72 | 81 | 1011.9 |
| 20260506194519 | 15 | 116 | 3.2 | 8.0 | 0.00 | 2.72 | 2.72 | 81 | 1011.6 |
| 20260506193020 | 15 | 128 | 6.4 | 16.1 | 0.00 | 2.72 | 2.72 | 82 | 1011.3 |
| 20260506191524 | 15 | 80 | 6.4 | 19.3 | 0.00 | 2.72 | 2.72 | 81 | 1011.3 |
| 20260506190007 | 15 | 77 | 8.0 | 20.9 | 0.00 | 2.72 | 2.72 | 81 | 1011.0 |
| 20260506184511 | 15 | 72 | 6.4 | 19.3 | 0.00 | 2.72 | 2.72 | 81 | 1010.8 |
| 20260506183016 | 15 | 55 | 11.3 | 22.5 | 0.00 | 2.72 | 2.72 | 82 | 1010.6 |
| 20260506181522 | 15 | 73 | 8.0 | 25.7 | 0.00 | 2.72 | 2.72 | 81 | 1010.2 |
| 20260506180029 | 15 | 96 | 8.0 | 24.1 | 0.00 | 2.72 | 2.72 | 81 | 1010.0 |
| 20260506174509 | 15 | 91 | 11.3 | 25.7 | 0.00 | 2.72 | 2.72 | 79 | 1009.8 |
| 20260506173019 | 15 | 128 | 9.7 | 16.1 | 0.00 | 2.72 | 2.72 | 79 | 1009.9 |
| 20260506171503 | 15 | 71 | 12.9 | 24.1 | 0.00 | 2.72 | 2.72 | 80 | 1009.8 |
| 20260506170003 | 15 | 132 | 8.0 | 22.5 | 0.00 | 2.72 | 2.72 | 79 | 1009.7 |
| 20260506164504 | 16 | 113 | 11.3 | 19.3 | 0.00 | 2.72 | 2.72 | 78 | 1009.7 |
| 20260506163004 | 16 | 83 | 9.7 | 27.4 | 0.00 | 2.72 | 2.72 | 78 | 1009.8 |
| 20260506161503 | 16 | 122 | 9.7 | 19.3 | 0.00 | 2.72 | 2.72 | 78 | 1009.9 |
| 20260506160004 | 16 | 75 | 6.4 | 20.9 | 0.00 | 2.72 | 2.72 | 79 | 1009.8 |
| 20260506154504 | 16 | 96 | 6.4 | 16.1 | 0.00 | 2.72 | 2.72 | 78 | 1009.8 |
| 20260506153003 | 16 | 79 | 8.0 | 27.4 | 0.00 | 2.72 | 2.72 | 78 | 1009.8 |
| 20260506151503 | 16 | 108 | 4.8 | 17.7 | 0.00 | 2.72 | 2.72 | 77 | 1009.8 |
| 20260506150005 | 16 | 109 | 8.0 | 32.2 | 0.00 | 2.72 | 2.72 | 76 | 1009.9 |
| 20260506144504 | 16 | 56 | 12.9 | 27.4 | 0.00 | 2.72 | 2.72 | 74 | 1009.7 |
| 20260506143004 | 16 | 74 | 11.3 | 27.4 | 0.00 | 2.72 | 2.72 | 79 | 1009.6 |
| 20260506141502 | 16 | 80 | 14.5 | 30.6 | 0.00 | 2.72 | 2.72 | 78 | 1009.8 |
| 20260506140004 | 16 | 87 | 8.0 | 20.9 | 0.00 | 2.72 | 2.72 | 78 | 1009.8 |
| 20260506134504 | 17 | 82 | 11.3 | 29.0 | 0.00 | 2.72 | 2.72 | 77 | 1009.9 |
| 20260506130006 | 18 | 169 | 11.3 | 30.6 | 0.00 | 2.72 | 2.72 | 73 | 1010.0 |
| 20260506124507 | 18 | 79 | 8.0 | 22.5 | 0.00 | 2.72 | 2.72 | 76 | 1009.8 |
| 20260506123005 | 18 | 72 | 12.9 | 20.9 | 0.00 | 2.72 | 2.72 | 76 | 1009.6 |
| 20260506120014 | 18 | 96 | 11.3 | 24.1 | 0.00 | 2.72 | 2.72 | 79 | 1009.4 |
| 20260506114506 | 17 | 82 | 11.3 | 29.0 | 0.00 | 2.72 | 2.72 | 82 | 1009.2 |
| 20260506113010 | 17 | 74 | 12.9 | 38.6 | 0.00 | 2.72 | 2.72 | 82 | 1009.3 |
| 20260506111505 | 17 | 89 | 9.7 | 27.4 | 0.00 | 2.72 | 2.72 | 82 | 1009.3 |
| 20260506104508 | 17 | 97 | 9.7 | 24.1 | 0.00 | 2.72 | 2.72 | 79 | 1009.3 |
| 20260506103009 | 17 | 95 | 14.5 | 30.6 | 0.00 | 2.72 | 2.72 | 79 | 1009.4 |
| 20260506101521 | 17 | 80 | 11.3 | 29.0 | 0.00 | 2.72 | 2.72 | 80 | 1009.2 |
| 20260506100010 | 17 | 71 | 12.9 | 27.4 | 0.00 | 2.74 | 2.72 | 79 | 1009.1 |
| 20260506094522 | 17 | 85 | 9.7 | 25.7 | 0.00 | 2.87 | 2.72 | 79 | 1009.1 |
| 20260506093014 | 17 | 91 | 12.9 | 27.4 | 0.00 | 2.92 | 2.72 | 79 | 1009.0 |
| 20260506091514 | 17 | 64 | 14.5 | 22.5 | 0.00 | 2.95 | 2.72 | 80 | 1008.9 |
| 20260506090014 | 17 | 140 | 9.7 | 17.7 | 0.00 | 2.97 | 2.72 | 84 | 1008.8 |
| 20260506081506 | 16 | 131 | 4.8 | 14.5 | 0.00 | 2.97 | 2.72 | 87 | 1008.7 |
| 20260506073015 | 14 | 260 | 0.0 | 1.6 | 0.36 | 2.97 | 2.72 | 91 | 1008.5 |
| 20260506071509 | 13 | 306 | 0.0 | 8.0 | 0.38 | 2.97 | 2.72 | 90 | 1008.5 |
| 20260506061508 | 12 | 289 | 1.6 | 3.2 | 0.00 | 2.62 | 2.34 | 92 | 1007.9 |
| 20260506044545 | 12 | 297 | 0.0 | 3.2 | 0.03 | 3.71 | 2.34 | 92 | 1008.9 |
| 20260506043014 | 12 | 311 | 0.0 | 3.2 | 0.03 | 3.91 | 2.34 | 92 | 1009.0 |
| 20260506041512 | 12 | 293 | 0.0 | 0.0 | 0.00 | 4.24 | 2.31 | 92 | 1009.6 |
| 20260506040007 | 12 | 293 | 1.6 | 3.2 | 0.00 | 4.83 | 2.31 | 92 | 1009.6 |
| 20260506034530 | 12 | 274 | 0.0 | 1.6 | 0.10 | 5.08 | 2.31 | 92 | 1009.6 |
| 20260506033016 | 12 | 278 | 0.0 | 1.6 | 0.13 | 5.26 | 2.31 | 92 | 1009.5 |
| 20260506031517 | 12 | 282 | 3.2 | 9.7 | 0.15 | 5.41 | 2.31 | 92 | 1009.6 |
| 20260506030018 | 12 | 352 | 0.0 | 4.8 | 0.41 | 5.54 | 2.31 | 92 | 1010.0 |
| 20260506024511 | 13 | 89 | 0.0 | 3.2 | 0.56 | 5.51 | 2.21 | 92 | 1010.2 |
| 20260506023016 | 13 | 84 | 0.0 | 1.6 | 0.81 | 5.56 | 2.18 | 92 | 1010.4 |
| 20260506021518 | 13 | 84 | 0.0 | 0.0 | 1.07 | 5.59 | 2.16 | 92 | 1010.5 |
| 20260506020020 | 13 | 84 | 0.0 | 4.8 | 1.37 | 5.41 | 1.91 | 91 | 1011.1 |
| 20260506013009 | 13 | 264 | 0.0 | 4.8 | 1.37 | 5.05 | 1.37 | 92 | 1011.2 |
| 20260506011517 | 13 | 105 | 0.0 | 3.2 | 1.09 | 4.85 | 1.09 | 91 | 1010.9 |
| 20260506010022 | 13 | 82 | 0.0 | 4.8 | 0.53 | 4.39 | 0.53 | 91 | 1011.0 |
| 20260506004533 | 13 | 263 | 0.0 | 0.0 | 0.00 | 3.91 | 0.00 | 91 | 1011.1 |
| 20260506001513 | 13 | 271 | 0.0 | 1.6 | 0.00 | 3.91 | 0.00 | 91 | 1011.2 |
| 20260506000022 | 13 | 279 | 0.0 | 1.6 | 0.00 | 3.91 | 0.00 | 91 | 1011.3 |
| 20260505234533 | 13 | 302 | 0.0 | 3.2 | 0.00 | 3.91 | 0.00 | 91 | 1011.7 |
| 20260505233025 | 13 | 262 | 0.0 | 0.0 | 0.00 | 3.91 | 0.00 | 91 | 1011.9 |
| 20260505231526 | 13 | 262 | 0.0 | 1.6 | 0.00 | 3.91 | 0.00 | 91 | 1012.2 |
| 20260505230030 | 13 | 262 | 0.0 | 1.6 | 0.00 | 3.91 | 0.00 | 91 | 1012.1 |
| 20260505224520 | 13 | 269 | 1.6 | 3.2 | 0.00 | 3.91 | 0.00 | 91 | 1012.2 |
| 20260505223024 | 13 | 299 | 0.0 | 3.2 | 0.00 | 3.91 | 0.00 | 91 | 1012.4 |
| 20260505221512 | 13 | 286 | 0.0 | 1.6 | 0.00 | 3.91 | 0.00 | 91 | 1012.5 |
| 20260505220023 | 13 | 255 | 0.0 | 1.6 | 0.00 | 3.91 | 0.00 | 90 | 1012.5 |
| 20260505214523 | 13 | 255 | 0.0 | 1.6 | 0.00 | 3.91 | 3.91 | 90 | 1012.7 |